Temperature
15 15 15 16 12 10 12 13 15 16 16 17 18 18 17 17 17 17 16 16 16 16 16 15 16 15 15 15 15 15 15 15 15 15 15 15 15 15 15 15 15 15 15 15 15 15 15 15 15
15 15 15 15 11 11 12 13 14 15 17 18 18 17 16 16 16 16 16 15 16 16 15 15 15 15 15 15 15 15 15 15 15 15 15 15 15 15 15 15 15 15 15 15 15 14 14 14 15
14 15 15 10 10 11 13 14 14 16 17 17 17 17 16 16 16 16 16 16 16 15 15 15 15 15 15 15 15 15 15 15 15 15 15 15 15 15 15 15 14 15 15 15 15 14 14 14 14
14 14 14 10 12 12 13 14 14 15 16 17 16 16 16 15 15 16 16 16 15 15 15 15 15 15 15 15 15 15 15 15 15 14 14 14 14 14 14 14 14 14 14 14 14 14 14 14 14
14 14 10 10 12 12 13 14 15 14 15 16 16 14 15 15 15 15 15 15 15 15 15 15 14 14 14 14 14 14 14 14 14 14 14 14 14 14 14 14 14 14 14 14 14 14 14 14 14
14 11 9 10 12 13 13 15 15 14 15 15 15 14 14 14 14 14 15 15 15 15 15 14 14 14 14 14 14 14 14 14 14 14 14 14 14 14 14 14 14 14 14 14 14 14 14 14 14
12 9 10 11 11 12 13 15 14 13 14 15 15 13 13 14 14 14 14 14 14 14 14 14 14 14 14 14 14 14 14 14 14 14 14 14 14 14 14 14 14 14 14 14 14 14 14 14 13
13 9 11 11 12 12 13 14 14 14 14 15 15 13 13 14 14 14 14 14 14 14 14 14 14 14 14 14 14 13 13 13 13 13 13 13 13 13 14 14 14 14 14 14 13 13 13 13 13
12 9 9 11 12 12 13 13 14 14 14 14 14 14 14 14 14 13 13 13 13 13 13 13 13 13 13 14 13 13 13 13 13 13 13 13 13 13 13 13 13 13 13 13 13 13 13 13 13
11 9 10 11 12 12 12 13 13 13 13 13 13 14 14 13 13 13 13 13 13 13 13 13 13 13 13 13 13 13 13 12 13 13 13 13 13 13 13 13 13 13 13 13 13 13 13 13 13
10 9 11 11 12 12 12 12 13 12 11 12 13 13 13 13 13 13 13 13 13 13 13 13 13 13 13 13 13 13 12 12 12 12 12 12 12 12 13 13 13 13 13 13 13 13 13 12 12
10 10 11 12 12 12 12 12 12 12 12 13 13 13 13 12 13 13 12 13 12 12 12 12 12 12 12 12 12 12 12 12 12 12 12 12 12 12 12 12 12 12 12 13 13 13 12 12 12
10 10 11 11 12 12 12 11 11 11 13 13 13 12 12 12 12 12 12 12 12 12 12 12 12 12 12 12 12 12 12 12 12 12 12 12 12 12 12 12 12 12 12 12 12 12 12 12 12
10 10 11 11 11 11 11 11 10 11 13 12 12 12 12 12 12 12 12 12 12 12 12 12 12 12 12 12 12 12 12 12 12 12 12 12 12 12 12 12 12 12 12 12 12 12 12 12 11
11 10 9 10 10 11 10 10 9 12 12 12 12 12 12 12 12 12 12 12 12 12 12 12 12 11 11 12 12 11 11 11 11 11 11 11 11 12 12 12 12 12 11 11 11 12 11 11 11
10 9 8 10 10 10 10 9 10 12 12 11 12 12 12 12 12 12 12 12 12 12 12 12 11 11 11 11 11 11 11 11 11 11 11 11 11 11 11 11 11 11 11 11 11 11 11 11 11
8 8 8 9 10 10 9 9 10 12 11 11 11 12 12 12 12 12 12 12 12 12 12 11 11 11 11 11 11 11 11 11 11 11 11 11 11 11 11 11 11 11 11 11 11 11 11 11 10
8 8 8 9 10 9 9 9 10 11 11 10 11 11 11 11 11 12 12 12 11 11 11 11 11 11 10 10 10 10 10 10 10 10 10 11 11 11 11 11 11 11 11 11 10 10 10 10 10
9 8 8 9 10 9 8 9 10 10 10 10 10 10 11 11 11 11 11 11 11 11 11 11 11 10 10 10 10 10 10 10 10 10 10 10 10 10 10 11 11 11 10 10 10 10 10 10 10
9 8 8 9 9 9 8 9 9 9 9 10 10 10 11 11 11 11 11 11 11 11 11 10 10 10 10 10 10 10 10 10 10 10 10 10 10 10 10 10 10 10 10 10 10 10 9 9 9
8 8 8 8 8 8 8 8 9 9 10 10 10 11 11 11 11 11 11 11 11 11 11 10 10 10 10 9 9 9 9 9 9 9 9 9 9 9 9 9 10 10 10 10 9 9 9 9 9
8 9 9 8 8 6 8 7 8 8 9 9 9 10 10 11 11 11 10 10 11 11 10 10 10 10 9 9 9 9 9 9 9 9 9 9 9 9 9 9 9 9 9 9 9 9 9 9 9
8 9 8 8 7 6 6 6 7 8 8 9 9 10 10 11 10 10 10 10 10 10 10 10 9 9 9 9 9 8 8 8 8 8 9 9 9 9 9 9 9 9 9 9 9 9 8 8 8
8 8 8 6 6 6 7 6 7 7 8 9 9 9 10 10 10 10 10 10 10 10 10 9 9 9 9 8 8 8 8 8 8 8 8 8 8 8 8 8 8 8 8 8 8 8 8 8 8
8 7 6 6 6 7 7 6 7 8 8 8 8 9 10 10 9 9 9 9 9 9 9 9 9 9 8 8 8 8 8 8 7 7 7 8 8 8 8 8 8 8 8 8 8 8 8 8 8
7 7 7 7 7 6 6 6 7 8 8 9 9 9 9 9 9 9 9 9 9 9 9 9 9 8 8 8 8 7 7 7 7 7 7 7 7 8 8 7 7 7 7 7 7 7 7 7 7
7 6 7 6 6 6 6 6 7 8 8 8 8 8 9 9 9 9 9 9 9 9 9 9 9 8 8 8 7 7 7 7 7 7 7 7 7 7 7 7 7 7 7 7 7 7 7 7 7
7 7 6 6 6 7 7 6 7 8 7 7 7 7 8 9 9 9 9 9 9 9 9 8 8 8 8 7 7 7 6 6 6 6 6 6 7 7 7 7 6 7 6 6 6 6 6 6 6
7 7 6 5 5 6 6 7 7 7 7 7 7 7 8 8 9 9 9 8 8 8 8 8 7 7 7 7 7 6 6 6 6 6 6 6 6 6 6 6 6 6 6 6 6 6 6 6 6
7 7 6 6 6 5 5 6 7 6 6 6 6 7 8 8 8 8 8 8 8 7 7 7 7 7 7 7 7 6 6 6 6 6 6 6 6 6 6 6 6 6 6 6 6 6 6 6 6
Wind_Speed
12 10 2 4 5 4 3 4 3 2 2 2 1 2 5 4 3 4 3 5 8 10 10 12 12 11 10 11 10 10 9 9 9 9 9 10 9 10 9 9 9 9 9 9 9 8 8 8 8
8 4 5 5 5 2 4 4 4 5 4 2 2 2 4 2 2 5 3 5 9 10 11 11 12 11 10 10 11 10 9 9 9 9 9 9 9 9 9 9 9 9 9 9 8 8 7 7 7
6 2 4 4 4 6 6 4 5 3 3 1 2 3 3 2 2 3 4 8 9 8 9 10 12 11 11 10 10 10 10 9 9 9 9 9 9 9 9 8 9 9 9 8 8 8 7 6 6
4 5 5 4 3 5 5 4 3 1 3 3 2 3 3 3 1 3 7 10 9 7 8 10 11 11 10 10 10 10 10 10 9 9 9 9 9 9 9 9 8 9 8 8 7 7 7 6 6
4 4 4 0 4 4 4 4 2 1 1 1 3 2 2 4 3 6 7 9 9 7 7 9 10 10 10 10 10 10 10 10 10 10 9 10 10 9 9 9 8 7 8 7 7 7 6 6 6
4 4 3 3 5 4 3 3 1 1 1 0 3 2 1 0 4 4 6 7 7 7 6 7 10 10 9 9 9 10 10 11 11 10 10 10 9 9 9 9 8 7 7 7 7 6 6 5 6
4 4 4 5 4 4 4 1 2 1 1 2 3 3 2 2 1 3 5 5 6 6 5 5 6 8 8 9 9 10 11 11 11 11 10 10 10 9 9 8 7 7 7 6 6 5 5 5 5
5 4 2 3 5 5 3 0 1 2 3 2 3 5 4 5 2 4 4 4 4 4 4 4 5 6 6 7 9 10 10 11 11 11 11 11 10 9 9 8 7 6 6 5 5 5 4 4 4
4 3 4 5 5 5 2 0 2 2 1 1 1 4 5 4 3 4 3 2 2 3 3 4 4 4 5 6 8 9 9 11 11 11 12 11 9 9 8 8 7 6 6 5 5 4 4 4 4
4 4 7 5 4 4 2 2 3 1 2 2 2 2 1 3 3 3 3 3 3 4 4 4 4 4 4 5 6 6 7 8 9 9 9 9 8 7 7 8 7 6 5 4 3 3 3 3 4
4 6 4 4 4 3 3 3 3 4 6 8 7 5 4 3 4 4 5 5 5 5 5 5 5 5 4 3 4 4 5 6 7 8 9 9 7 7 7 6 5 5 4 3 3 2 3 3 4
3 5 5 4 3 3 4 4 4 7 11 8 9 8 6 6 7 7 6 5 4 4 5 6 6 5 5 5 4 4 4 4 5 6 9 8 5 4 5 4 4 3 3 3 3 3 3 4 5
5 5 5 6 6 6 6 7 6 10 11 7 7 7 8 9 8 8 7 6 5 5 5 6 6 6 6 5 4 4 4 4 5 6 8 8 5 4 4 4 4 3 3 3 2 2 3 3 4
4 5 6 7 7 6 7 9 6 12 8 7 8 9 9 9 9 8 7 7 7 6 6 6 6 6 6 5 4 4 4 5 5 6 7 9 7 5 4 3 3 3 3 3 3 3 3 2 3
2 4 7 7 7 5 4 9 10 11 6 8 9 9 9 9 8 8 9 8 8 7 6 7 7 6 6 6 5 4 4 5 4 5 7 8 8 7 5 3 3 3 4 4 4 3 3 3 2
1 2 5 6 6 5 5 11 10 8 7 9 9 8 8 8 9 9 8 8 8 8 7 7 6 6 6 6 5 4 4 4 4 5 6 7 8 8 6 3 3 4 5 4 2 2 2 2 2
1 4 6 6 5 5 7 10 8 6 8 10 10 9 9 8 8 8 8 8 8 8 7 7 6 7 6 6 5 4 4 4 4 5 5 6 8 8 6 4 3 5 4 2 2 2 2 2 2
6 6 6 7 4 5 7 13 12 7 8 11 10 8 8 9 10 9 8 8 7 6 6 6 7 7 6 5 4 3 3 3 3 3 4 6 7 8 6 4 4 5 3 2 2 3 2 2 2
5 6 9 8 5 4 10 14 14 10 8 9 9 9 9 10 8 7 7 7 6 6 6 7 7 6 6 5 4 4 4 4 3 3 4 6 6 7 6 4 4 3 3 4 4 2 3 2 2
8 9 10 9 4 5 9 13 12 10 8 9 10 10 9 8 6 6 7 6 7 7 7 6 7 7 7 6 5 3 4 3 4 3 3 5 6 7 6 5 5 4 4 4 3 3 2 1 1
10 11 10 8 6 4 6 9 8 6 5 6 7 8 8 9 8 7 7 7 7 8 8 8 7 8 8 7 4 4 3 2 2 3 3 3 5 6 6 6 5 5 5 5 4 4 3 3 1
10 9 9 7 4 5 1 6 8 5 6 7 7 7 8 8 8 7 7 8 9 9 7 8 7 7 7 7 7 7 5 4 4 3 3 3 5 5 5 5 5 5 5 5 5 4 2 4 2
8 5 6 5 4 4 3 4 9 4 7 8 8 8 8 8 8 8 8 9 8 8 7 7 7 7 7 8 8 8 6 4 3 2 3 4 3 4 5 5 4 4 4 5 5 4 4 3 3
4 0 1 1 1 5 7 6 8 5 7 6 6 7 7 7 7 7 7 6 6 6 6 6 7 7 7 8 8 8 8 6 6 5 5 4 3 3 4 5 4 3 3 4 5 4 5 3 3
4 3 1 2 2 7 4 5 9 8 7 7 7 8 7 6 6 6 6 7 8 8 8 7 8 8 8 8 8 8 8 8 8 8 7 5 4 3 5 4 4 4 4 4 4 4 5 4 4
7 8 6 5 5 5 2 7 8 6 5 4 5 5 5 5 6 6 7 8 9 9 9 9 10 9 9 9 8 7 8 7 6 7 6 6 6 5 5 5 5 5 4 4 4 3 4 4 4
6 7 6 4 2 3 6 6 7 3 1 1 1 2 3 5 5 6 6 7 8 9 9 10 10 10 10 9 8 7 7 7 7 6 6 5 4 4 6 6 5 5 5 5 5 4 4 4 4
6 7 5 5 5 6 6 6 5 4 4 2 2 3 4 3 3 4 5 5 6 7 8 8 9 9 9 9 9 8 8 8 8 7 7 6 5 5 6 6 6 5 5 5 4 4 4 4 3
6 5 5 5 4 5 5 7 4 5 4 3 3 4 4 3 4 4 4 4 4 4 5 7 8 8 9 9 9 8 8 7 7 7 8 7 6 6 7 7 7 7 6 6 5 4 5 5 4
8 8 8 6 6 5 5 7 3 1 1 2 2 3 3 2 2 2 2 2 3 4 4 6 7 7 8 8 8 8 8 7 7 7 7 7 7 7 7 7 7 7 7 6 7 6 6 6 5
Wind_Direction
334 334 53 58 61 62 216 237 231 267 273 254 268 128 129 123 146 162 172 144 135 143 147 150 152 149 144 142 138 136 137 135 131 126 124 127 128 129 126 123 122 120 116 111 108 105 101 100 98
334 350 54 62 100 150 249 240 227 240 245 286 350 79 83 81 89 114 126 146 136 139 143 150 151 152 148 146 145 144 142 141 137 132 128 128 128 129 130 127 126 122 116 112 111 107 105 104 101
335 36 80 82 138 184 209 219 208 243 288 343 5 39 90 111 108 137 160 143 128 130 140 151 150 154 153 150 151 151 148 144 141 138 133 131 129 126 127 127 125 122 119 118 117 115 110 109 104
44 45 60 89 206 226 211 232 226 293 338 17 59 44 39 18 143 156 140 130 127 129 139 150 153 155 156 155 156 156 153 149 145 142 139 135 131 127 121 119 122 124 124 123 123 122 118 117 114
61 77 78 135 238 243 235 243 230 243 282 358 78 69 12 348 61 106 122 126 130 134 132 149 155 156 157 159 159 158 156 153 147 142 141 136 130 126 123 118 118 124 127 126 125 124 122 121 116
58 73 111 208 234 247 261 253 183 184 230 99 100 97 206 263 83 99 112 123 131 136 134 148 159 158 159 159 162 162 160 154 147 142 139 135 132 127 122 119 118 119 125 126 125 123 120 121 114
108 112 173 201 219 246 256 267 140 177 224 225 154 138 199 238 163 116 107 117 125 130 134 140 153 161 161 162 162 164 162 156 149 145 141 136 132 128 124 122 123 122 122 122 124 120 116 118 112
127 117 182 212 210 231 250 309 165 182 231 252 146 165 206 220 181 98 89 100 126 140 143 144 151 153 162 166 159 159 162 157 152 146 141 137 133 131 128 124 125 124 124 125 126 121 110 101 100
102 99 206 215 206 222 223 294 300 279 209 282 208 198 210 182 133 93 74 69 127 157 167 158 157 157 162 165 163 156 161 158 152 147 142 135 132 132 131 131 130 125 122 123 127 128 113 92 89
111 178 219 218 206 208 233 218 234 279 273 270 297 296 205 160 149 157 180 197 190 188 189 180 171 160 157 161 151 147 154 153 149 147 143 137 134 134 134 140 139 134 126 123 129 131 111 89 88
166 200 223 242 238 226 245 248 210 199 242 223 213 213 206 207 200 202 210 210 215 202 190 187 177 162 156 146 143 141 142 143 148 150 147 140 134 134 130 131 133 131 130 120 114 101 100 103 105
201 237 227 241 247 243 243 243 247 222 234 222 207 199 198 211 216 215 214 214 225 217 202 191 181 171 166 155 149 146 148 147 149 155 153 146 138 136 138 137 138 134 136 129 119 119 117 113 116
228 254 253 251 261 251 251 246 247 252 247 238 224 214 211 214 221 223 213 209 208 220 215 194 186 181 171 162 160 153 160 160 160 157 159 158 152 158 151 149 149 153 152 146 130 121 119 114 110
232 248 267 261 254 248 242 257 240 256 240 231 226 222 221 219 221 223 215 214 213 215 219 198 185 184 174 171 171 167 168 164 160 163 168 163 159 159 156 154 161 165 169 165 144 131 124 119 113
274 296 291 256 236 235 225 266 237 246 231 231 233 227 225 223 219 217 213 205 202 204 210 201 187 179 178 174 172 167 170 162 156 165 169 166 161 159 155 159 167 173 166 148 124 110 103 105 105
333 302 279 263 215 211 185 258 253 235 217 233 236 230 225 227 220 219 215 208 201 195 197 197 184 175 180 175 171 161 163 158 156 160 164 165 163 161 155 161 172 164 148 134 124 117 97 85 95
246 251 255 278 223 195 202 253 261 233 215 233 238 235 228 230 230 222 211 205 202 198 192 189 178 174 179 176 168 161 154 155 157 160 164 165 161 161 158 162 165 156 137 128 141 115 113 105 93
223 232 248 250 245 206 234 258 270 254 227 234 237 236 228 227 231 222 210 203 195 190 189 186 176 174 170 163 157 157 155 162 152 156 166 167 165 162 154 150 153 151 143 133 123 117 98 117 124
221 230 253 256 243 239 252 264 270 260 242 239 237 233 229 232 233 215 205 198 186 181 183 191 178 175 162 158 168 171 180 185 183 173 171 170 165 160 150 149 150 151 153 152 137 117 105 85 104
240 254 263 279 259 244 264 270 269 256 238 231 232 229 226 227 232 216 205 198 188 187 189 189 186 178 174 173 173 169 172 180 186 178 169 168 162 161 159 156 162 156 144 138 137 124 112 111 119
237 234 247 259 308 303 298 289 271 264 239 237 231 226 219 212 216 216 207 203 192 194 192 192 190 183 176 166 152 138 128 121 174 178 181 172 160 160 161 161 158 160 155 161 162 152 136 152 157
246 233 235 248 270 280 250 286 279 260 263 247 243 237 224 217 212 208 206 201 198 199 189 186 186 182 175 165 163 160 167 181 203 192 184 177 166 159 157 158 160 165 162 165 173 160 149 150 160
230 228 222 230 221 272 240 234 279 265 258 252 243 239 235 220 210 209 208 204 201 192 182 183 178 180 174 170 170 170 175 184 184 179 172 172 170 162 161 157 158 168 166 168 169 161 156 159 166
209 185 4 60 138 260 224 201 272 239 235 245 238 238 233 222 216 215 213 198 192 185 178 176 176 181 176 174 175 176 177 177 179 185 189 184 177 170 164 159 160 170 167 172 173 167 166 167 166
168 142 22 302 239 247 208 204 250 247 237 230 234 237 230 218 213 212 206 195 189 184 181 178 178 181 180 178 181 182 180 181 188 188 190 185 180 181 182 171 172 176 177 171 166 170 175 175 175
197 178 184 212 225 264 235 229 252 259 258 244 233 229 226 222 216 212 207 199 194 190 186 181 182 183 182 183 184 184 179 181 191 193 193 191 189 186 179 175 179 178 174 169 166 175 182 178 179
174 203 194 172 211 251 256 270 293 289 303 284 244 235 246 237 225 219 210 202 197 193 192 187 183 183 184 185 181 183 180 180 187 191 193 197 193 183 175 175 178 177 175 172 172 179 184 180 188
181 164 144 176 199 239 264 257 244 262 263 280 289 286 273 262 242 230 216 204 200 198 193 187 185 187 186 184 184 186 188 187 186 186 191 196 192 180 178 180 183 182 181 176 176 179 182 178 190
173 181 181 178 188 192 240 258 229 222 230 224 257 271 266 250 244 240 226 206 197 188 183 186 186 183 184 186 184 184 188 187 188 190 193 191 191 184 189 187 186 186 186 182 181 187 182 183 191
192 189 173 185 219 203 211 257 264 217 226 192 257 292 291 274 258 248 226 197 185 186 191 188 184 185 187 185 182 186 189 188 190 196 196 190 190 188 190 185 184 189 188 185 185 189 190 190 196
Height
1513 1514 1515 1517 1521 1532 1532 1525 1517 1514 1513 1511 1510 1509 1509 1511 1513 1519 1516 1514 1516 1517 1519 1520 1521 1523 1524 1525 1525 1526 1527 1528 1529 1530 1531 1531 1532 1532 1533 1534 1534 1535 1535 1536 1536 1537 1537 1538 1539
1513 1514 1516 1517 1527 1537 1532 1521 1517 1513 1511 1510 1509 1509 1508 1510 1511 1512 1512 1514 1515 1517 1518 1519 1520 1522 1523 1524 1525 1526 1527 1528 1529 1529 1530 1531 1531 1532 1533 1533 1534 1535 1535 1536 1536 1537 1537 1538 1538
1513 1514 1516 1520 1528 1532 1525 1516 1514 1511 1510 1509 1508 1508 1509 1511 1511 1511 1512 1513 1515 1516 1517 1518 1520 1521 1522 1523 1524 1525 1526 1527 1528 1529 1530 1530 1531 1532 1532 1533 1534 1535 1535 1536 1536 1537 1537 1538 1538
1513 1515 1517 1524 1525 1522 1517 1513 1511 1510 1509 1508 1508 1509 1510 1512 1512 1511 1512 1513 1514 1516 1517 1518 1519 1520 1521 1522 1523 1524 1525 1526 1527 1528 1529 1530 1530 1531 1532 1533 1533 1534 1535 1535 1536 1536 1537 1538 1538
1513 1514 1521 1526 1522 1517 1513 1510 1510 1509 1509 1508 1508 1509 1510 1512 1511 1511 1512 1513 1514 1515 1516 1517 1518 1519 1520 1521 1522 1523 1524 1525 1526 1527 1528 1529 1530 1530 1531 1532 1533 1534 1534 1535 1535 1536 1537 1537 1538
1514 1515 1527 1528 1521 1515 1511 1509 1509 1508 1508 1508 1508 1509 1510 1511 1511 1512 1512 1513 1513 1514 1515 1516 1517 1518 1519 1520 1521 1522 1523 1524 1525 1526 1527 1528 1529 1530 1531 1531 1532 1533 1534 1534 1535 1535 1536 1537 1537
1514 1519 1523 1521 1519 1515 1510 1508 1508 1508 1507 1507 1507 1509 1509 1510 1511 1511 1511 1512 1513 1513 1514 1515 1516 1517 1518 1519 1520 1521 1522 1523 1524 1525 1526 1527 1528 1529 1530 1531 1531 1532 1533 1533 1534 1535 1535 1536 1537
1512 1517 1519 1519 1516 1513 1508 1507 1507 1507 1506 1506 1507 1507 1507 1508 1509 1509 1510 1511 1511 1512 1512 1513 1514 1515 1516 1517 1518 1520 1521 1522 1523 1524 1525 1527 1527 1528 1529 1530 1530 1531 1532 1533 1534 1534 1535 1535 1536
1512 1520 1521 1516 1512 1509 1506 1506 1506 1506 1505 1504 1504 1504 1505 1506 1507 1508 1509 1509 1510 1510 1511 1511 1512 1513 1514 1515 1516 1518 1520 1521 1522 1523 1524 1525 1526 1527 1528 1529 1530 1531 1531 1532 1533 1534 1534 1535 1535
1511 1518 1513 1508 1506 1505 1505 1505 1505 1504 1503 1502 1502 1502 1503 1504 1505 1505 1506 1506 1507 1508 1509 1509 1510 1511 1512 1513 1514 1516 1517 1519 1520 1521 1523 1524 1525 1526 1527 1528 1529 1530 1530 1531 1532 1533 1533 1534 1535
1509 1510 1506 1504 1503 1503 1503 1503 1502 1502 1501 1499 1499 1499 1500 1501 1502 1502 1503 1503 1504 1505 1506 1507 1508 1509 1510 1511 1512 1513 1515 1517 1518 1520 1521 1522 1524 1525 1526 1527 1528 1528 1529 1530 1531 1532 1532 1533 1534
1507 1504 1503 1502 1501 1501 1501 1500 1500 1498 1495 1495 1496 1496 1497 1498 1498 1499 1500 1500 1501 1502 1503 1504 1505 1506 1507 1508 1509 1511 1512 1514 1516 1518 1519 1520 1522 1523 1524 1525 1526 1527 1528 1529 1530 1531 1531 1532 1533
1504 1502 1501 1500 1500 1499 1499 1497 1497 1492 1491 1492 1492 1493 1493 1493 1494 1495 1496 1497 1497 1498 1499 1501 1502 1503 1504 1506 1507 1509 1510 1512 1514 1515 1517 1518 1519 1521 1522 1524 1525 1526 1527 1527 1528 1529 1530 1531 1532
1501 1500 1499 1497 1496 1496 1496 1493 1494 1486 1487 1488 1488 1488 1488 1489 1490 1491 1492 1492 1493 1494 1495 1497 1498 1500 1502 1503 1504 1506 1507 1509 1511 1513 1515 1516 1517 1519 1520 1522 1523 1524 1525 1526 1527 1527 1528 1530 1531
1500 1500 1498 1494 1493 1493 1494 1492 1486 1482 1484 1484 1484 1484 1484 1485 1486 1486 1487 1488 1490 1491 1492 1494 1495 1496 1498 1500 1501 1503 1505 1506 1508 1510 1512 1514 1515 1517 1518 1520 1521 1522 1523 1524 1525 1526 1527 1528 1529
1500 1501 1501 1491 1490 1490 1495 1490 1480 1479 1480 1480 1479 1479 1479 1480 1481 1482 1483 1485 1486 1487 1488 1489 1491 1492 1494 1496 1498 1500 1502 1503 1505 1508 1510 1511 1513 1515 1516 1517 1519 1520 1521 1522 1523 1524 1525 1526 1528
1503 1504 1499 1492 1487 1487 1490 1485 1476 1476 1476 1475 1475 1474 1474 1475 1476 1477 1479 1480 1481 1482 1484 1485 1487 1489 1490 1493 1494 1496 1499 1501 1502 1505 1506 1508 1510 1512 1514 1515 1516 1518 1519 1520 1521 1522 1523 1524 1526
1501 1501 1496 1492 1485 1486 1486 1480 1473 1472 1472 1470 1470 1470 1470 1470 1470 1472 1474 1475 1476 1478 1479 1481 1483 1485 1487 1489 1491 1493 1495 1497 1500 1501 1503 1505 1507 1509 1511 1512 1514 1515 1516 1517 1518 1520 1521 1522 1524
1492 1494 1492 1487 1482 1484 1482 1476 1470 1467 1467 1466 1465 1465 1465 1465 1466 1468 1469 1471 1472 1473 1475 1476 1478 1480 1483 1485 1486 1488 1490 1493 1496 1498 1499 1502 1503 1505 1507 1509 1510 1512 1513 1514 1516 1517 1518 1520 1521
1491 1492 1490 1485 1481 1482 1479 1473 1466 1463 1461 1460 1460 1459 1460 1461 1462 1463 1464 1466 1467 1469 1471 1472 1474 1476 1478 1480 1483 1485 1487 1489 1492 1494 1496 1498 1500 1502 1504 1505 1507 1509 1510 1511 1513 1514 1515 1517 1518
1487 1488 1487 1486 1482 1480 1479 1472 1464 1458 1457 1456 1455 1455 1455 1456 1457 1459 1460 1461 1463 1464 1466 1468 1469 1471 1474 1477 1479 1481 1484 1485 1488 1490 1492 1494 1496 1498 1500 1502 1504 1505 1507 1508 1510 1511 1512 1513 1515
1484 1480 1482 1483 1487 1488 1483 1483 1464 1459 1455 1453 1452 1451 1451 1452 1453 1455 1456 1457 1458 1460 1462 1464 1465 1468 1470 1473 1475 1477 1478 1480 1483 1486 1488 1491 1493 1495 1496 1498 1500 1502 1503 1505 1507 1508 1509 1510 1512
1478 1476 1478 1480 1483 1487 1484 1486 1467 1459 1455 1450 1448 1447 1447 1448 1449 1451 1452 1453 1455 1456 1458 1460 1462 1464 1466 1468 1471 1473 1475 1478 1481 1483 1485 1487 1489 1491 1493 1494 1497 1499 1500 1502 1504 1505 1506 1508 1509
1473 1476 1478 1482 1486 1486 1478 1483 1468 1458 1450 1446 1445 1444 1444 1445 1446 1447 1448 1450 1451 1453 1454 1456 1458 1460 1463 1465 1467 1469 1472 1474 1477 1479 1481 1483 1485 1487 1489 1491 1493 1495 1497 1499 1500 1502 1504 1505 1507
1472 1479 1486 1486 1487 1479 1472 1474 1462 1447 1444 1442 1442 1441 1441 1442 1443 1444 1445 1446 1448 1449 1451 1453 1455 1457 1459 1462 1464 1466 1468 1470 1472 1475 1477 1479 1480 1482 1485 1487 1489 1492 1494 1496 1498 1499 1501 1502 1504
1468 1472 1480 1480 1480 1477 1470 1468 1453 1443 1440 1439 1439 1439 1439 1439 1440 1440 1441 1443 1444 1446 1448 1450 1452 1454 1456 1458 1460 1463 1464 1467 1469 1471 1474 1475 1477 1479 1481 1483 1486 1488 1491 1493 1495 1496 1498 1499 1500
1465 1468 1468 1475 1477 1479 1470 1460 1448 1439 1438 1438 1438 1437 1437 1437 1437 1438 1438 1440 1441 1443 1445 1446 1448 1450 1452 1455 1457 1459 1461 1463 1466 1468 1470 1472 1473 1476 1478 1479 1482 1484 1487 1489 1491 1492 1494 1496 1497
1457 1461 1469 1472 1472 1471 1464 1460 1452 1442 1440 1438 1437 1436 1435 1435 1435 1436 1436 1437 1439 1440 1442 1443 1445 1447 1449 1451 1453 1455 1457 1460 1462 1465 1466 1468 1470 1472 1474 1476 1479 1481 1483 1486 1488 1489 1491 1492 1493
1456 1458 1460 1465 1466 1467 1464 1456 1440 1439 1438 1438 1437 1435 1434 1433 1433 1434 1434 1435 1436 1437 1438 1440 1441 1443 1445 1447 1449 1452 1454 1456 1458 1460 1462 1464 1466 1468 1471 1473 1475 1477 1479 1481 1483 1485 1487 1488 1490
1445 1448 1453 1459 1461 1462 1463 1454 1436 1437 1436 1436 1436 1434 1433 1432 1432 1432 1432 1433 1434 1434 1435 1437 1438 1440 1441 1443 1445 1448 1450 1451 1453 1456 1458 1460 1462 1465 1467 1469 1471 1473 1475 1477 1479 1481 1483 1484 1486